Location: Cicognara
(44.9500°N, 10.4667°E)
Time: 14:22:36
(UTC+00:00)

Cosmos 1943 Rocket - Pass Details

Date: 20 June 2021
Orbit: 813 x 843 km, 71.0° (Epoch: 02 August)

Event Time Altitude Azimuth Distance (km) Brightness Sun altitude
Rises 23:19:25 0° 333° (NNW) 3,346 6.4 -21.6°
Reaches altitude 10° 23:21:50 10° 332° (NNW) 2,411 5.4 -21.6°
Maximum altitude 23:27:21 80° 247° (WSW) 834 2.0 -21.6°
Enters shadow 23:29:01 46° 169° (SSE) 1,080 2.3 -21.6°
